Home > Weather > Yangon > Past weeks

Flag for Myanmar Weather for the Past 2 Weeks in Yangon, Myanmar

Now
73 °F

Passing clouds.


Feels Like: 75 °F
Forecast: 66 / 83 °F
Wind: 6 mph from East

Location: Rangoon Airport

Current Time: Feb 7, 2016 at 8:20:26 AM

Latest Report: Feb 7, 2016 at 7:30 AM


Visibility: 4 mi

Pressure: 29.98 "Hg

Humidity: 74%

Dew point: 64 °F

Location of YangonLocation

Historic Weather in Yangon — Graph

°F

Yangon Temperature Yesterday

Maximum temperature yesterday: 93 °F (at 1:30 PM)
Minimum temperature yesterday: 70 °F (at 5:00 AM)
Average temperature yesterday: 83 °F

High & Low Weather Summary for the Past Weeks

 TemperatureHumidityPressure
High95 °F (Jan 23, 2:30 PM)100% (Jan 26, 5:00 AM)30.07 "Hg (Jan 26, 5:00 AM)
Low61 °F (Jan 31, 7:00 AM)28% (Feb 5, 3:00 PM)29.80 "Hg (Feb 5, 3:00 PM)
Average78 °F62%29.93 "Hg
* Reported Jan 23 6:30 AM — Feb 7 6:30 AM, Yangon, Weather by CustomWeather, © 2016

Note: Actual official high and low records may vary slightly from our data, if they occured in-between our weather recording intervals... More about our weather records

Advertising

Yangon Weather History for the Previous 24 Hours

 ConditionsComfort  
Time TempWeatherWind HumidityBarometerVisibility
6:30 AM
Sun, Feb 7
73 °FPassing clouds.6 mph83%29.95 "Hg4 mi
5:30 AM73 °FPassing clouds.2 mph83%29.92 "Hg4 mi
5:00 AM73 °FPassing clouds.2 mph83%29.92 "Hg4 mi
12:30 AM75 °FClear.3 mph83%29.92 "Hg4 mi
12:00 AM77 °FClear.3 mph74%29.92 "Hg4 mi
11:30 PM
Sat, Feb 6
77 °FClear.3 mph74%29.92 "Hg4 mi
11:00 PM79 °FClear.3 mph70%29.92 "Hg4 mi
10:30 PM79 °FClear.3 mph70%29.92 "Hg4 mi
10:00 PM79 °FClear.3 mph70%29.92 "Hg4 mi
9:30 PM81 °FClear.3 mph62%29.89 "Hg4 mi
9:00 PM81 °FClear.3 mph62%29.89 "Hg4 mi
8:30 PM84 °FClear.3 mph51%29.89 "Hg4 mi
8:00 PM84 °FClear.3 mph51%29.89 "Hg4 mi
7:30 PM84 °FClear.2 mph58%29.89 "Hg4 mi
7:00 PM86 °FClear.3 mph49%29.86 "Hg4 mi
6:30 PM88 °FClear.3 mph38%29.86 "Hg5 mi
6:00 PM90 °FClear.3 mph38%29.86 "Hg5 mi
5:30 PM91 °FClear.6 mph34%29.83 "Hg5 mi
5:00 PM91 °FClear.6 mph34%29.83 "Hg5 mi
4:30 PM93 °FClear.7 mph30%29.80 "Hg6 mi
4:00 PM93 °FClear.7 mph30%29.80 "Hg6 mi
3:30 PM93 °FClear.7 mph30%29.83 "Hg6 mi
3:00 PM93 °FClear.7 mph30%29.83 "Hg6 mi
2:30 PM93 °FClear.5 mph32%29.83 "Hg6 mi
2:00 PM93 °FClear.5 mph32%29.86 "Hg6 mi
1:30 PM93 °FClear.3 mph30%29.86 "Hg6 mi
1:00 PM91 °FClear.3 mph34%29.89 "Hg6 mi
12:30 PM91 °FClear.6 mph34%29.92 "Hg6 mi
12:00 PM90 °FClear.6 mph38%29.92 "Hg6 mi
11:30 AM90 °FClear.6 mph38%29.95 "Hg5 mi
9:00 AM73 °FClear.3 mph74%29.95 "Hg4 mi
Weather by CustomWeather, © 2016

See weather overviewHow to use our weather pages